Flight Track Log - Related Links

Times and Time Zones

All times are in EDT time to prevent confusion due to time zone crossing. See the OPT429 flight status page for this flight to view local times or setup timezone preferences in your user account.

Time Position Orientation Groundspeed Altitude Reporting Facility
EDT Latitude Longitude Course Direction KTS MPH feet Rate Location/Type
Mon 03:19:53 PM 34.8053 -82.1972 161° South 157 181 7,400  Level Atlanta Center
Mon 03:20:53 PM 34.7567 -82.1578 146° Southeast 178 205 10,300 2,850 Climbing Atlanta Center
Mon 03:21:53 PM 34.7097 -82.0931 131° Southeast 218 251 13,100 2,800 Climbing Atlanta Center
Mon 03:22:53 PM 34.6544 -82.0339 139° Southeast 243 280 15,900 1,900 Climbing Atlanta Center
Mon 03:23:00 PM 34.6414 -81.9541 141° Southeast  Level Estimated
Mon 03:23:53 PM 34.5925 -81.9544 133° Southeast 282 325 16,900  Level Atlanta Center
Mon 03:24:53 PM 34.5158 -81.8631 136° Southeast 338 389 17,000 50 Climbing Atlanta Center
Mon 03:25:53 PM 34.4308 -81.7722 139° Southeast 385 443 17,000  Level Atlanta Center
Mon 03:27:52 PM 34.3403 -81.5397 115° Southeast 401 461 17,000  Level Jacksonville Center
Mon 03:28:52 PM 34.3056 -81.4244 110° East 387 445 17,000  Level Jacksonville Center
Mon 03:29:52 PM 34.2750 -81.3119 108° East 370 426 17,000  Level Jacksonville Center
Mon 03:30:52 PM 34.2381 -81.1969 111° Southeast 358 412 17,000  Level Jacksonville Center
Mon 03:31:52 PM 34.2117 -81.0897 107° East 347 399 17,000  Level Jacksonville Center
Mon 03:32:52 PM 34.1828 -80.9772 107° East 341 392 17,000  Level Jacksonville Center
Mon 03:33:52 PM 34.1583 -80.8750 106° East 341 392 17,000  Level Jacksonville Center
Mon 03:34:52 PM 34.1375 -80.7550 102° East 334 384 17,000  Level Jacksonville Center
Mon 03:35:52 PM 34.0861 -80.6683 126° Southeast 321 369 17,000  Level Jacksonville Center
Mon 03:36:52 PM 34.0181 -80.5975 139° Southeast 315 362 17,000  Level Jacksonville Center
Mon 03:37:52 PM 33.9378 -80.5497 154° Southeast 315 362 17,000  Level Jacksonville Center
Mon 03:38:52 PM 33.8536 -80.5119 160° South 315 362 17,000  Level Jacksonville Center
Mon 03:39:52 PM 33.7694 -80.4767 161° South 321 369 17,000  Level Jacksonville Center
Mon 03:40:52 PM 33.6853 -80.4414 161° South 321 369 17,000  Level Jacksonville Center
Mon 03:41:52 PM 33.6011 -80.4039 160° South 321 369 17,000 -400 Level Jacksonville Center
Mon 03:42:52 PM 33.5189 -80.3639 158° South 321 369 16,200 -1,550 Descending Jacksonville Center
Mon 03:43:52 PM 33.4325 -80.3264 160° South 326 375 13,900 -2,300 Descending Jacksonville Center
Mon 03:44:52 PM 33.3442 -80.2917 162° South 331 381 11,600 -1,950 Descending Jacksonville Center
Mon 03:45:52 PM 33.2619 -80.2544 159° South 325 374 10,000 -850 Descending Jacksonville Center
Mon 03:46:52 PM 33.1842 -80.2194 159° South 315 362 9,900 -100 Descending Jacksonville Center
Mon 03:47:52 PM 33.1103 -80.1869 160° South 297 342 9,800 -550 Descending Jacksonville Center
Mon 03:48:52 PM 33.0264 -80.1622 166° South 297 342 8,800 -1,000 Descending Jacksonville Center
Mon 03:49:52 PM 32.9586 -80.1197 152° Southeast 297 342 7,800 -1,100 Descending Jacksonville Center
Mon 03:50:52 PM 32.8933 -80.0897 159° South 272 313 6,600 -1,600 Descending Jacksonville Center
Mon 03:51:52 PM 32.8300 -80.0569 156° South 259 298 4,600 -2,100 Descending Jacksonville Center
Mon 03:52:52 PM 32.7664 -80.0194 154° Southeast 254 292 2,400 -2,200 Descending Jacksonville Center
Mon 03:54:00 PM 32.7000 -80.0000 157° South  Level FlightAware Approximate

Login

Don't have an account? Register now (free) for customized features, flight alerts, and more!